Temp
24 21 20 22 23 24 25 25 25 27 29 29 28 22 22 21 20 20 23 21 24 24 25 24 24 23 22 22 21 21 20 20 20 21 20 20 20 20 20 20 19 20 20 19
22 20 23 25 25 25 25 25 25 27 29 28 23 22 21 21 21 22 22 24 22 24 24 24 24 23 22 22 21 21 20 20 20 21 20 19 20 21 20 20 19 19 20 20
21 23 26 25 25 25 25 24 25 26 28 28 23 22 20 22 22 21 21 24 21 23 25 24 24 23 22 22 21 21 20 20 20 20 20 20 20 20 20 20 20 20 20 20
23 25 26 25 25 25 23 27 28 28 26 23 27 21 21 22 20 19 20 21 21 22 23 24 24 23 23 22 22 21 20 20 20 20 20 20 20 21 20 21 20 20 20 20
23 24 25 25 26 26 25 27 26 27 25 24 26 23 21 22 22 20 19 20 21 22 22 24 24 24 23 23 22 21 21 20 20 20 20 20 20 20 21 21 21 21 20 20
23 26 25 25 27 27 28 26 25 24 23 21 23 24 22 21 23 24 22 20 21 21 24 24 24 24 23 23 22 21 21 20 20 20 20 20 20 21 21 21 21 20 20 20
23 23 24 26 24 25 26 24 19 19 20 20 23 23 24 23 25 25 24 24 25 25 24 24 24 24 23 22 22 22 21 21 20 20 20 21 21 21 21 21 21 21 21 21
20 20 24 26 24 24 24 22 19 20 20 22 24 23 25 27 27 27 25 26 25 26 25 24 24 24 24 23 22 22 22 21 21 21 20 21 21 21 21 21 21 21 21 21
17 19 22 24 25 25 23 22 23 21 22 22 23 25 27 28 27 27 27 26 25 26 27 26 24 24 24 23 23 22 22 22 21 21 21 20 21 21 21 21 21 21 21 21
17 16 20 22 23 24 24 25 22 21 20 20 22 23 23 26 28 27 27 26 26 26 26 26 24 25 24 24 23 22 22 22 22 21 21 21 21 22 21 21 21 21 21 21
16 15 16 19 21 20 22 22 22 22 22 21 20 22 26 26 26 26 26 26 26 25 24 27 26 24 22 24 24 23 22 22 22 22 21 21 21 21 22 21 21 21 21 21
14 14 13 16 20 21 21 22 21 19 20 20 20 23 22 21 22 25 26 26 24 21 22 24 22 25 22 22 23 24 23 22 22 22 22 22 22 21 22 22 21 21 21 21
14 12 11 14 17 19 17 19 19 21 20 19 19 21 22 22 21 20 23 22 22 22 23 24 25 23 24 22 22 23 23 23 23 22 22 22 22 22 22 22 22 21 22 21
15 12 12 11 13 15 15 17 18 19 20 20 21 22 20 20 20 18 18 21 22 23 22 24 24 20 21 22 22 24 23 23 23 22 22 22 22 22 22 22 22 21 21 21
13 11 12 13 15 15 15 16 17 16 19 19 20 21 20 19 17 17 17 18 19 19 19 18 20 20 21 21 21 23 23 22 22 22 22 22 22 21 21 21 22 22 21 22
13 11 10 11 14 15 15 16 17 17 19 20 20 21 22 18 16 15 14 16 17 17 17 17 17 17 17 18 20 22 23 23 22 22 22 22 21 21 20 20 21 21 21 21
12 9 10 10 12 13 12 14 15 17 18 19 19 16 19 16 15 14 14 14 16 16 15 15 16 16 17 18 20 22 21 21 22 22 22 23 22 22 21 20 19 20 21 22
11 11 8 9 9 9 13 14 15 16 14 15 15 15 17 13 12 14 14 15 14 15 15 14 15 16 16 17 19 24 22 21 21 23 23 23 23 23 22 21 20 19 19 20
12 11 9 8 8 11 12 14 13 13 13 13 13 13 13 13 15 12 12 13 14 14 14 14 14 14 15 16 17 18 21 19 20 22 24 24 23 23 22 22 21 21 20 19
10 10 8 9 9 9 10 13 14 14 11 12 13 12 12 12 12 10 11 12 13 14 14 14 13 13 14 15 17 19 19 20 21 23 23 24 24 23 23 23 22 21 21 20
6 8 7 8 8 11 9 10 12 11 8 7 12 11 11 10 11 11 11 11 12 13 13 13 13 13 12 13 15 16 18 19 22 23 23 23 24 24 23 23 22 22 21 21
7 6 6 7 9 9 7 9 7 6 7 7 8 9 9 9 10 10 10 10 11 12 12 12 13 13 12 14 15 16 17 19 20 22 23 23 23 24 24 23 22 22 22 21
7 6 4 6 7 8 5 5 4 5 5 5 5 6 7 8 8 9 9 10 10 10 11 11 12 12 12 13 14 15 16 17 20 21 23 23 23 23 23 23 22 22 21 21
6 7 4 5 8 6 5 3 3 3 3 3 4 5 5 6 7 8 9 9 9 10 10 10 11 11 11 13 13 13 15 16 17 20 22 22 23 23 23 22 22 22 21 21
5 5 5 4 6 5 5 3 2 2 2 3 3 4 4 4 5 6 7 8 9 9 9 10 10 10 10 12 13 13 14 16 17 18 20 22 23 23 23 23 22 21 21 21
5 3 3 3 4 3 3 2 2 1 2 2 2 2 4 4 4 4 6 7 8 9 9 9 9 10 10 11 12 14 14 16 16 17 17 20 22 21 22 22 22 21 21 21
Height
1475 1482 1490 1485 1483 1482 1480 1481 1484 1470 1456 1460 1466 1484 1488 1495 1504 1506 1510 1518 1519 1522 1525 1528 1530 1535 1539 1543 1548 1552 1556 1561 1564 1567 1572 1575 1578 1581 1584 1585 1586 1587 1589 1591
1480 1486 1476 1476 1476 1478 1477 1481 1480 1464 1452 1456 1471 1478 1481 1487 1494 1494 1499 1503 1520 1520 1525 1528 1528 1531 1534 1539 1544 1550 1553 1558 1561 1566 1571 1574 1576 1579 1582 1584 1585 1587 1588 1590
1481 1474 1470 1473 1474 1476 1475 1481 1477 1475 1456 1450 1473 1493 1494 1490 1491 1493 1494 1494 1512 1521 1518 1526 1528 1528 1531 1535 1540 1546 1551 1555 1558 1563 1569 1572 1575 1578 1579 1582 1584 1587 1588 1590
1472 1467 1467 1470 1473 1471 1485 1463 1464 1464 1473 1493 1457 1509 1493 1485 1492 1495 1494 1497 1510 1515 1519 1518 1524 1525 1527 1531 1537 1543 1548 1552 1556 1560 1564 1568 1571 1574 1577 1579 1583 1586 1587 1589
1473 1467 1466 1468 1466 1463 1472 1461 1465 1465 1472 1477 1467 1490 1483 1483 1491 1491 1486 1483 1493 1502 1512 1512 1514 1519 1523 1527 1532 1538 1543 1548 1553 1556 1561 1565 1568 1572 1576 1579 1581 1584 1586 1587
1465 1459 1459 1460 1457 1457 1458 1465 1467 1468 1479 1505 1479 1483 1488 1486 1471 1472 1478 1475 1474 1488 1499 1506 1510 1514 1517 1522 1527 1533 1537 1542 1548 1552 1557 1561 1564 1569 1573 1576 1579 1581 1584 1586
1467 1464 1458 1457 1464 1457 1460 1475 1511 1514 1512 1512 1477 1480 1471 1460 1455 1457 1458 1464 1471 1474 1486 1497 1502 1508 1511 1515 1520 1527 1532 1536 1542 1547 1552 1556 1561 1566 1570 1573 1575 1578 1582 1584
1485 1489 1461 1458 1462 1468 1468 1477 1508 1518 1519 1502 1473 1487 1463 1441 1444 1448 1455 1456 1462 1472 1480 1483 1492 1498 1504 1508 1513 1519 1526 1531 1535 1541 1546 1551 1556 1561 1566 1569 1573 1576 1579 1582
1494 1484 1464 1462 1461 1459 1467 1479 1468 1489 1485 1494 1480 1461 1445 1431 1433 1439 1448 1459 1465 1468 1474 1479 1486 1491 1496 1502 1506 1511 1519 1526 1530 1535 1541 1546 1552 1557 1561 1566 1570 1573 1576 1579
1491 1501 1475 1468 1462 1454 1460 1457 1484 1484 1510 1514 1489 1477 1472 1444 1427 1430 1438 1445 1457 1467 1471 1478 1486 1492 1487 1494 1502 1508 1512 1518 1524 1530 1535 1540 1545 1552 1557 1562 1566 1570 1574 1577
1495 1502 1493 1482 1475 1480 1473 1470 1468 1474 1481 1500 1510 1486 1441 1443 1430 1424 1422 1430 1441 1458 1472 1470 1478 1490 1495 1494 1494 1502 1506 1513 1519 1524 1530 1536 1540 1546 1552 1557 1561 1565 1569 1573
1506 1507 1513 1498 1478 1474 1475 1472 1470 1496 1494 1483 1490 1476 1447 1446 1441 1425 1418 1422 1432 1443 1458 1460 1464 1475 1491 1494 1496 1492 1497 1505 1511 1518 1524 1529 1535 1540 1545 1550 1556 1560 1565 1569
1513 1518 1526 1505 1483 1480 1491 1485 1485 1472 1478 1490 1498 1477 1447 1447 1444 1443 1440 1437 1441 1449 1456 1460 1463 1470 1479 1486 1495 1492 1493 1496 1504 1510 1517 1522 1528 1533 1537 1544 1550 1555 1560 1564
1513 1519 1525 1532 1519 1513 1507 1494 1491 1490 1489 1485 1478 1467 1463 1460 1460 1456 1454 1447 1447 1446 1458 1461 1463 1453 1464 1480 1488 1487 1488 1491 1498 1503 1508 1514 1519 1525 1531 1537 1543 1549 1554 1558
1515 1525 1522 1519 1514 1511 1507 1502 1496 1499 1486 1488 1477 1474 1470 1468 1470 1475 1473 1478 1472 1477 1476 1478 1465 1464 1471 1475 1480 1485 1482 1486 1491 1497 1501 1505 1512 1518 1524 1529 1534 1542 1547 1551
1514 1524 1524 1523 1517 1511 1508 1499 1495 1493 1483 1475 1473 1472 1462 1469 1468 1475 1478 1479 1482 1482 1483 1481 1482 1487 1485 1477 1482 1477 1484 1482 1486 1489 1495 1502 1506 1512 1516 1521 1526 1533 1538 1543
1518 1526 1527 1528 1520 1516 1514 1503 1498 1491 1483 1481 1481 1483 1468 1476 1476 1478 1482 1481 1480 1481 1482 1480 1476 1485 1480 1463 1465 1473 1477 1484 1486 1484 1489 1495 1500 1504 1509 1514 1520 1524 1529 1535
1516 1519 1526 1530 1532 1537 1505 1499 1495 1492 1494 1488 1486 1486 1480 1480 1483 1482 1483 1484 1484 1482 1479 1479 1477 1471 1475 1474 1469 1463 1472 1482 1480 1485 1485 1489 1493 1498 1503 1509 1513 1518 1523 1528
1510 1515 1523 1531 1533 1519 1507 1501 1501 1502 1506 1499 1497 1494 1494 1487 1480 1486 1489 1490 1487 1486 1490 1485 1477 1473 1470 1472 1471 1473 1471 1475 1479 1480 1480 1484 1487 1492 1497 1502 1506 1511 1517 1521
1515 1516 1526 1523 1529 1523 1512 1500 1499 1498 1507 1505 1503 1498 1495 1491 1488 1495 1495 1494 1486 1488 1485 1483 1482 1473 1470 1467 1468 1470 1476 1478 1471 1472 1476 1478 1482 1485 1488 1493 1499 1504 1509 1513
1528 1522 1526 1523 1524 1511 1518 1511 1503 1510 1520 1513 1506 1503 1502 1501 1502 1500 1497 1494 1495 1490 1484 1480 1479 1480 1477 1472 1471 1472 1469 1467 1466 1466 1468 1474 1476 1479 1481 1487 1493 1498 1502 1507
1529 1532 1531 1526 1515 1516 1522 1516 1520 1521 1514 1515 1509 1505 1503 1500 1501 1497 1498 1496 1491 1491 1488 1483 1477 1475 1472 1468 1461 1457 1457 1456 1456 1459 1463 1465 1470 1474 1477 1481 1485 1490 1495 1499
1530 1531 1535 1531 1522 1520 1524 1525 1522 1519 1516 1511 1510 1508 1509 1504 1499 1495 1492 1489 1489 1486 1485 1481 1477 1474 1470 1465 1463 1459 1456 1454 1453 1454 1456 1458 1463 1467 1470 1474 1478 1482 1487 1491
1528 1529 1531 1530 1518 1518 1518 1517 1517 1514 1511 1503 1498 1496 1503 1502 1498 1495 1487 1484 1484 1483 1480 1478 1477 1473 1468 1466 1465 1461 1457 1455 1453 1450 1448 1451 1455 1461 1466 1469 1472 1475 1478 1482
1527 1528 1527 1525 1518 1516 1514 1514 1512 1507 1505 1502 1498 1493 1490 1492 1490 1493 1490 1482 1479 1476 1479 1479 1473 1471 1469 1467 1464 1461 1458 1454 1451 1449 1446 1448 1452 1456 1461 1463 1465 1467 1470 1474
1520 1522 1526 1523 1518 1519 1514 1511 1508 1504 1499 1496 1493 1487 1482 1485 1481 1482 1483 1484 1478 1475 1474 1470 1469 1471 1466 1465 1462 1459 1455 1451 1447 1447 1446 1443 1446 1452 1458 1460 1462 1463 1465 1468
Wind_Speed
11 3 6 8 9 11 14 13 10 9 13 8 15 15 20 28 23 21 24 7 30 27 26 35 38 37 38 34 32 27 28 23 22 31 28 21 16 16 9 9 8 5 6 9
6 9 7 10 14 12 16 14 14 12 10 9 15 16 16 16 11 25 31 27 20 34 33 29 39 41 40 37 34 30 29 27 22 29 29 21 15 16 10 9 11 6 3 6
10 11 16 14 12 14 13 10 10 10 17 9 13 6 5 6 7 14 21 26 22 28 43 33 37 43 40 38 36 34 34 29 26 22 28 22 17 15 13 15 12 9 5 7
8 14 15 12 15 13 8 9 10 11 8 4 4 5 11 14 10 11 14 16 28 29 38 41 39 42 43 40 37 34 36 32 29 25 28 27 24 22 19 16 15 8 8 8
8 10 12 13 11 13 11 10 8 6 8 6 17 2 6 9 12 18 24 33 34 52 48 46 49 43 43 42 41 39 36 37 33 29 28 30 28 24 20 18 13 14 8 8
9 19 6 7 13 11 5 8 9 6 2 4 11 3 2 12 20 18 30 43 48 44 54 51 48 45 43 44 43 42 39 39 38 34 31 32 31 28 21 20 20 18 12 12
8 10 10 13 8 10 4 3 4 4 4 6 9 8 9 22 17 19 25 40 43 39 53 51 47 45 44 45 47 45 43 40 40 38 36 34 34 31 24 21 19 23 16 12
3 8 4 6 8 6 7 6 5 6 4 8 9 6 10 12 25 30 37 48 39 45 54 54 53 51 48 47 48 47 46 43 41 41 40 36 34 33 28 23 21 20 14 13
7 7 17 15 18 6 8 7 11 6 9 8 7 8 11 15 7 26 27 26 31 37 41 49 52 51 52 50 50 50 47 44 41 40 41 41 36 37 34 28 25 20 17 15
8 5 6 15 16 10 4 6 3 4 4 7 7 10 5 10 19 17 19 28 27 24 33 27 22 42 55 54 52 50 49 46 42 40 42 46 41 36 37 33 30 30 23 22
12 7 10 9 5 11 15 7 5 2 4 9 4 8 6 20 11 17 21 32 40 21 31 44 26 23 24 48 54 54 53 49 46 41 39 44 46 41 39 39 32 31 28 26
8 3 5 14 18 16 14 15 2 2 7 3 2 8 16 21 21 23 28 35 39 48 50 46 41 38 25 25 47 56 56 53 49 44 41 39 44 46 43 42 39 35 31 29
8 4 5 10 6 6 7 18 22 6 5 6 3 6 10 19 24 42 26 12 28 39 36 28 17 35 48 33 37 50 55 55 52 48 44 41 39 44 48 45 42 40 35 34
3 3 3 5 13 12 15 22 21 17 6 7 10 12 11 15 21 31 43 46 13 26 19 14 24 23 64 48 32 52 53 54 53 50 47 45 42 41 43 46 45 43 39 38
3 3 7 11 14 16 20 18 20 19 16 8 10 12 6 9 11 26 32 30 35 29 22 22 4 37 28 35 41 51 51 51 50 48 46 44 41 40 39 40 44 44 45 42
2 1 5 7 13 15 19 20 18 20 18 15 12 4 4 19 28 31 34 34 29 31 30 29 25 16 13 23 26 30 38 49 47 47 44 40 37 34 37 39 40 40 43 47
1 4 1 3 9 14 12 11 16 19 18 15 10 10 8 9 15 22 29 35 29 31 31 31 31 26 23 12 16 25 17 18 45 49 45 41 38 36 33 35 38 40 41 42
6 4 3 0 4 4 6 16 13 13 19 20 17 17 13 18 17 17 15 24 33 31 32 31 26 30 26 20 12 16 20 15 20 45 47 45 41 38 36 34 36 39 40 40
10 3 2 4 4 11 11 6 11 9 12 16 14 14 21 22 23 23 24 16 23 30 23 26 24 23 21 17 12 14 27 31 18 37 45 45 43 41 39 39 37 37 39 40
9 5 3 1 3 4 7 5 4 12 3 18 18 17 19 23 6 7 23 21 18 27 26 26 24 20 21 21 13 2 9 19 15 8 36 42 40 40 42 40 39 38 38 39
5 2 0 3 5 2 13 23 21 3 5 30 13 12 18 8 10 17 20 21 16 22 26 28 24 22 19 23 19 13 12 13 11 11 12 31 39 39 41 42 40 40 39 38
2 3 2 4 3 3 24 6 6 9 22 23 20 19 16 19 21 20 19 18 17 20 22 24 25 23 25 26 24 23 20 19 17 16 16 21 38 38 40 42 43 41 40 39
2 1 1 2 3 11 15 12 14 16 17 19 20 18 15 19 22 25 24 21 21 19 18 21 23 19 21 24 24 24 21 21 19 20 22 22 30 40 40 40 43 43 41 40
4 3 2 4 3 13 18 18 20 19 21 27 30 29 18 16 19 20 25 25 22 21 20 20 21 17 20 20 20 21 20 20 19 18 18 22 24 36 39 38 39 42 43 41
2 2 1 5 11 17 1 19 22 26 21 20 23 27 27 23 25 20 21 26 24 23 20 20 18 16 18 19 19 20 19 17 17 14 4 12 17 27 37 38 39 39 42 42
9 6 4 4 2 4 16 15 18 27 26 24 26 31 33 29 31 27 22 20 23 24 22 18 15 16 18 18 18 19 19 17 17 15 9 9 16 21 28 33 37 39 39 40
Wind_Direction
220 237 210 233 246 256 274 281 279 270 243 191 196 147 168 171 153 149 152 181 185 196 189 178 183 184 181 188 192 190 192 196 190 171 173 163 176 191 172 177 158 111 94 160
252 230 233 230 238 240 256 269 281 289 282 186 138 166 167 175 143 155 167 189 224 189 201 196 180 183 184 187 192 189 193 200 200 176 173 166 175 171 172 187 162 160 157 138
220 235 217 240 254 256 246 243 275 277 305 318 93 89 153 185 195 171 198 181 211 212 192 200 184 184 186 187 192 191 194 200 204 192 177 170 171 175 194 183 177 178 204 172
237 241 259 237 233 256 263 266 268 274 316 280 46 225 202 182 174 188 169 170 222 222 213 192 188 186 189 193 194 198 198 200 204 203 187 178 180 180 193 199 194 224 193 186
255 240 259 251 256 221 257 285 289 299 271 332 300 22 233 162 170 189 152 138 219 234 222 196 193 194 195 197 198 200 206 205 205 206 191 185 187 189 200 195 204 197 180 180
291 300 284 256 265 273 246 273 297 317 329 294 270 189 141 177 199 197 181 186 197 214 196 196 194 192 194 199 200 201 205 209 210 207 199 193 190 189 195 205 206 192 201 189
269 255 269 285 304 280 270 319 326 316 305 250 242 278 236 202 219 195 184 195 197 177 188 192 190 191 192 197 202 203 207 212 214 210 205 197 193 189 191 204 208 201 201 198
312 318 196 322 253 241 245 213 180 234 233 254 247 253 269 203 203 202 194 198 197 198 188 188 190 190 193 198 204 207 209 214 216 210 206 204 197 193 192 200 208 207 214 212
7 304 347 333 339 280 249 241 225 261 267 285 274 283 257 267 209 194 192 200 200 194 190 188 192 191 192 198 205 211 212 214 217 213 206 206 206 195 195 195 199 206 211 220
353 315 346 341 330 325 308 225 256 227 239 277 286 293 249 252 252 158 163 164 179 185 177 169 181 197 196 200 206 210 217 217 218 217 211 207 210 204 199 198 202 208 209 216
18 33 315 351 322 345 337 297 266 255 214 246 282 281 249 6 293 184 177 167 158 164 207 182 197 210 199 201 204 209 216 217 218 219 217 212 211 211 205 204 203 203 205 216
10 284 316 299 296 304 304 311 18 354 294 225 153 265 26 21 3 357 181 176 174 178 190 186 190 202 233 216 206 208 214 218 220 220 219 219 216 216 212 210 210 208 208 208
355 356 337 325 295 60 3 341 334 256 275 265 186 262 13 13 13 10 19 133 153 173 180 188 178 190 227 247 231 206 210 218 221 220 219 221 221 220 221 216 214 216 215 209
49 325 300 272 302 317 308 319 322 327 294 258 263 299 358 14 12 21 12 16 166 152 161 184 227 208 216 236 241 206 205 215 219 219 221 222 224 225 223 224 221 222 221 220
67 306 306 308 307 312 304 299 304 309 301 300 304 328 342 51 39 25 16 22 47 48 55 38 24 197 214 248 242 212 201 203 216 219 221 225 227 228 229 227 226 222 226 228
85 294 357 302 313 292 290 295 289 294 294 298 312 317 18 53 51 38 21 13 31 27 28 25 42 90 65 243 215 191 202 200 205 217 221 224 225 227 227 229 229 226 222 229
311 135 142 282 336 322 296 288 293 297 291 304 305 23 37 47 54 50 24 9 9 18 18 13 10 21 38 66 203 194 185 212 207 213 218 222 225 226 228 229 228 229 227 224
243 241 142 254 22 276 255 330 298 314 34 26 41 28 21 95 76 47 29 6 358 9 5 1 8 10 17 37 43 212 256 256 218 217 218 220 223 227 228 227 229 228 231 233
25 351 286 148 211 271 292 343 358 6 29 35 22 15 7 348 90 50 23 2 357 356 357 351 360 4 352 2 38 172 204 296 272 228 219 224 224 225 228 229 230 229 229 233
11 359 138 266 208 270 6 295 312 329 145 10 17 8 5 7 17 10 353 345 347 340 346 345 351 354 352 351 355 235 230 234 233 219 227 224 225 229 228 233 233 233 233 235
324 4 205 247 231 224 348 354 317 258 354 319 356 17 10 4 349 335 337 336 331 333 341 333 342 353 349 333 337 337 289 278 252 214 205 231 229 229 235 232 233 235 235 237
299 322 1 330 253 230 15 8 359 332 321 341 2 5 3 333 327 324 317 325 333 330 332 331 328 343 343 341 338 338 330 305 286 263 220 221 233 230 232 232 230 233 235 236
191 150 224 250 279 17 13 353 358 347 319 320 327 324 338 318 315 314 313 314 322 321 310 332 323 332 336 343 342 334 331 317 293 277 238 222 231 230 229 230 229 228 230 235
127 114 223 358 18 356 337 350 352 334 318 307 306 311 315 307 308 306 306 302 304 309 322 315 314 328 330 331 337 337 329 321 315 295 252 220 223 227 227 230 232 231 229 231
91 47 224 273 278 335 41 331 335 336 317 307 300 294 299 302 294 292 292 292 292 300 309 303 314 316 316 315 326 332 334 323 318 307 218 210 233 232 226 230 230 232 237 240
179 187 180 227 121 251 284 320 324 338 320 306 300 292 289 290 286 283 274 276 272 288 293 304 303 304 295 309 316 321 328 328 324 315 327 186 195 216 235 234 233 233 239 244